This is the latest recevied weather packets stored in our database for station/object KD7AWQ. If no packets are shown the sender has not sent any weather packets the latest 10 day(s).
| Time | Temp. | Humidity | Pressure | Rain* | Wind** | Luminosity | Snow |
|---|---|---|---|---|---|---|---|
| 1777159927 | 23.89° C | 15% | 1178.7 hPa | 0 mm | - | 477 W/m² | - |
| 1777159623 | 23.89° C | 15% | 1178.7 hPa | 0 mm | - | 500 W/m² | - |
| 1777159320 | 23.33° C | 15% | 1178.6 hPa | 0 mm | - | 523 W/m² | - |
| 1777159015 | 23.89° C | 15% | 1178.7 hPa | 0 mm | - | 547 W/m² | - |
| 1777158710 | 23.89° C | 15% | 1178.6 hPa | 0 mm | - | 569 W/m² | - |
| 1777158406 | 23.89° C | 15% | 1178.8 hPa | 0 mm | - | 600 W/m² | - |
| 1777158102 | 23.33° C | 15% | 1178.9 hPa | 0 mm | - | 636 W/m² | - |
| 1777157797 | 23.89° C | 15% | 1178.8 hPa | 0 mm | - | 673 W/m² | - |
| 1777157493 | 23.33° C | 15% | 1179 hPa | 0 mm | - | 747 W/m² | - |
| 1777157190 | 22.78° C | 15% | 1179.2 hPa | 0 mm | - | 460 W/m² | - |
| 1777156889 | 23.33° C | 15% | 1179.2 hPa | 0 mm | - | 573 W/m² | - |
| 1777156585 | 23.89° C | 15% | 1179 hPa | 0 mm | - | 464 W/m² | - |
| 1777156281 | 23.89° C | 14% | 1179.3 hPa | 0 mm | - | 734 W/m² | - |
| 1777155978 | 23.33° C | 15% | 1178.9 hPa | 0 mm | - | 479 W/m² | - |
| 1777155675 | 23.89° C | 14% | 1178.8 hPa | 0 mm | - | 804 W/m² | - |
| 1777155370 | 23.33° C | 15% | 1178.9 hPa | 0 mm | - | 832 W/m² | - |
| 1777155067 | 23.33° C | 15% | 1179 hPa | 0 mm | - | 864 W/m² | - |
| 1777154765 | 23.33° C | 14% | 1179.2 hPa | 0 mm | - | 647 W/m² | - |
| 1777154461 | 23.33° C | 14% | 1179.3 hPa | 0 mm | - | 725 W/m² | - |
| 1777154156 | 23.33° C | 14% | 1179.3 hPa | 0 mm | - | 908 W/m² | - |
| 1777153853 | 23.33° C | 13% | 1179.4 hPa | 0 mm | - | 674 W/m² | - |
| 1777153550 | 22.78° C | 14% | 1179.2 hPa | 0 mm | - | 679 W/m² | - |
| 1777153244 | 23.33° C | 13% | 1179.2 hPa | 0 mm | - | 565 W/m² | - |
| 1777152942 | 23.33° C | 13% | 1179.3 hPa | 0 mm | - | 651 W/m² | - |
| 1777152638 | 23.33° C | 13% | 1180 hPa | 0 mm | - | 654 W/m² | - |
* Rain latest hour (hover to see other rain measurements)
** Current wind speed in m/s (hover to see current wind gust speed)